Temp
22 19 19 19 19 19 20 19 19 19 20 20 20 19 18 18 19 19 19 19 18 18 18 18 18 18 18 18 19 19 19 19
22 20 20 19 19 18 19 19 19 20 20 20 20 19 19 17 17 16 17 17 18 18 19 18 17 18 18 18 19 20 21 20
20 19 20 21 20 20 19 19 19 19 19 19 19 18 18 18 19 17 16 17 18 18 19 18 18 17 17 18 19 21 21 20
21 19 20 20 22 20 19 19 19 19 19 18 19 17 16 17 18 18 16 17 17 18 18 19 17 16 16 18 19 21 22 21
24 19 20 19 21 20 21 21 20 19 19 18 18 17 16 17 17 16 16 16 16 16 17 18 17 17 17 18 20 20 21 20
24 21 21 21 22 19 21 22 21 20 19 18 17 17 16 17 17 16 16 16 16 16 16 16 17 17 18 19 20 20 21 18
25 23 22 20 19 18 18 21 21 19 19 18 17 17 16 17 16 16 16 16 16 16 16 16 17 17 19 18 19 20 20 19
25 22 20 18 17 17 17 18 19 18 18 18 17 17 17 17 16 16 16 15 16 15 15 16 17 17 19 19 19 19 18 19
25 21 19 19 19 17 17 17 17 17 17 17 17 17 17 17 16 16 15 16 15 15 15 16 18 18 19 18 19 18 18 18
25 22 19 20 20 18 16 16 16 16 16 17 17 17 16 15 15 15 14 16 15 14 15 16 18 19 18 19 19 18 18 18
24 21 19 19 19 16 15 15 16 16 16 15 16 15 15 15 15 15 14 15 14 14 15 17 18 18 18 19 19 18 17 18
24 20 20 19 18 16 16 15 15 15 15 15 15 15 15 15 14 14 14 14 14 14 15 17 18 18 18 19 18 18 18 18
23 21 20 19 18 17 16 16 16 15 14 14 15 15 15 15 14 14 14 14 14 14 15 16 18 18 18 17 17 17 17 18
23 21 20 19 19 18 17 16 17 16 15 14 14 14 14 14 14 14 13 13 13 14 14 15 18 17 17 17 15 15 16 16
23 21 19 19 19 18 16 15 16 15 15 15 14 15 15 14 14 14 13 13 13 14 14 16 17 17 18 18 17 17 17 16
24 21 20 19 19 17 16 16 16 17 16 15 15 15 15 14 14 13 13 13 13 13 14 15 16 17 18 19 19 20 19 17
23 22 21 20 19 20 19 19 18 17 17 15 14 14 14 14 13 13 13 13 13 13 14 15 16 17 18 19 19 19 19 19
22 22 21 20 20 20 19 19 18 17 16 15 14 13 13 13 13 13 13 13 13 13 14 15 16 17 17 18 18 18 18 20
22 22 20 21 20 19 19 18 17 16 16 15 13 13 13 12 12 13 13 13 13 13 14 15 15 16 17 17 17 18 18 19
22 22 20 20 20 19 18 18 18 18 17 16 14 13 13 13 12 13 12 13 13 13 14 14 15 15 16 16 16 16 17 17
Height
736 736 738 741 744 746 749 752 755 757 760 765 767 770 769 763 777 782 785 790 791 796 797 800 804 808 812 815 817 820 823 824
736 738 739 742 745 747 749 749 754 757 760 763 765 768 772 776 777 780 788 790 796 797 798 802 805 808 812 816 818 819 823 825
734 737 738 742 745 747 748 750 751 755 758 761 763 767 770 774 777 783 783 791 796 799 800 803 806 809 812 816 819 820 821 824
732 735 736 740 743 745 748 749 750 754 757 759 762 765 768 772 775 776 784 792 794 796 804 804 807 811 814 817 819 820 821 823
729 733 735 738 741 744 746 747 748 752 755 757 761 763 767 772 776 781 785 790 794 795 801 807 809 811 814 815 818 819 821 822
725 730 732 734 737 742 744 744 746 749 752 755 759 761 765 770 775 780 784 787 790 795 798 803 807 810 813 815 817 820 820 822
719 725 729 730 734 740 743 743 744 747 750 753 757 760 763 769 774 777 781 784 786 791 795 799 805 808 811 814 817 820 822 824
714 722 726 727 732 737 740 742 743 747 748 751 755 757 761 766 771 775 778 781 785 790 792 794 802 806 810 813 817 819 824 826
710 718 723 726 730 734 738 738 742 744 746 749 754 756 760 763 767 771 774 778 783 787 792 793 799 805 809 814 816 821 824 827
705 713 719 723 726 730 734 737 740 742 744 747 751 754 757 760 765 768 771 775 780 784 790 793 799 802 806 812 816 821 824 826
700 709 714 720 723 727 730 734 737 740 741 745 749 752 755 758 763 765 769 774 780 784 789 793 797 800 807 810 814 818 824 826
697 706 711 718 720 725 728 731 736 738 739 743 746 749 753 756 760 763 768 773 779 782 787 792 795 799 805 809 814 817 822 826
693 702 708 713 717 721 723 729 734 736 738 739 742 746 750 754 757 760 766 770 776 780 785 791 794 798 802 809 816 819 821 824
689 698 704 708 714 717 720 727 731 734 736 737 739 742 746 750 751 755 760 769 774 778 784 789 791 795 800 808 818 823 823 825
684 694 700 704 710 714 719 726 729 732 732 734 737 741 744 747 745 752 756 764 769 776 781 786 790 795 799 802 811 813 819 823
681 689 696 701 706 710 716 720 726 727 728 731 735 739 741 744 748 748 751 759 766 772 779 784 788 791 795 799 803 802 807 817
678 685 692 698 702 705 712 715 721 723 725 729 733 736 738 741 743 743 749 755 762 769 777 782 785 788 792 795 800 801 803 805
675 681 687 694 698 702 708 712 717 719 723 727 732 735 737 738 740 743 748 753 759 767 774 779 784 788 791 794 797 800 802 802
671 677 685 690 695 701 706 712 716 718 721 726 730 733 736 738 741 742 747 750 757 765 773 778 782 786 789 792 796 799 802 802
667 673 684 688 693 698 705 710 713 716 719 723 728 732 735 738 742 745 749 752 757 765 771 775 779 784 787 791 796 798 800 803
Wind_Speed
11 14 13 14 13 16 16 16 15 17 18 17 19 19 21 19 24 23 22 19 20 23 24 27 27 27 26 24 20 15 15 15
11 13 12 11 11 12 16 17 15 14 15 16 17 20 22 18 11 11 19 14 19 21 23 26 28 28 27 25 18 13 16 15
12 13 13 11 11 12 13 16 17 16 14 16 17 16 19 18 22 13 15 19 16 18 19 26 26 27 26 24 18 12 7 15
14 13 13 12 11 13 13 14 16 16 14 15 16 17 18 21 31 17 20 19 22 17 17 22 25 21 21 20 15 10 11 10
17 14 14 13 12 14 13 16 16 18 17 16 17 19 20 23 18 24 26 25 22 23 21 21 21 21 20 18 13 10 11 12
18 16 16 14 11 14 14 13 16 15 17 17 17 18 24 21 20 27 27 28 27 27 27 24 21 20 21 18 13 13 10 16
21 19 17 14 15 15 15 13 12 16 17 19 19 20 23 22 20 25 25 28 31 32 31 26 21 21 19 15 14 9 11 12
22 20 18 16 16 15 14 13 11 13 15 17 20 21 21 24 24 23 23 27 31 30 31 28 23 22 22 17 16 11 11 9
25 21 19 17 17 13 12 13 15 16 16 17 20 19 22 22 21 24 24 30 30 30 28 25 25 23 20 17 14 12 14 13
26 23 20 19 16 14 12 13 13 15 17 21 18 17 20 22 24 24 23 26 28 29 27 24 23 20 21 18 15 13 14 14
26 23 22 20 16 15 13 12 14 17 15 18 17 18 20 24 23 27 27 28 29 29 24 23 23 22 20 18 16 15 14 15
26 24 22 20 16 14 12 10 14 15 13 15 15 18 23 24 28 29 29 28 31 31 24 21 22 23 23 16 14 15 15 15
27 25 24 22 19 17 15 13 13 12 12 14 16 17 18 22 26 31 30 31 31 34 26 24 23 27 15 20 12 9 9 15
27 26 26 23 19 16 12 15 13 13 13 13 14 17 19 20 34 33 34 31 34 33 26 24 22 26 20 19 4 4 8 11
28 27 26 23 19 16 13 14 10 12 12 12 13 14 14 17 28 35 33 36 37 36 30 27 20 23 25 19 6 5 13 16
28 27 26 24 21 18 18 18 14 15 13 11 10 11 14 18 20 38 39 38 36 36 32 28 26 24 23 24 19 10 11 6
27 27 26 24 24 19 19 18 16 13 12 11 11 8 10 13 25 32 36 36 38 35 30 29 25 24 22 19 17 16 13 11
28 29 27 25 24 19 18 16 16 13 13 12 13 10 9 12 25 31 34 34 38 38 32 27 25 21 21 19 15 12 9 10
29 29 27 26 23 19 17 16 16 15 15 14 14 15 13 17 20 27 28 31 33 37 34 27 25 23 22 21 18 15 15 11
29 29 27 25 23 20 19 17 16 13 12 13 13 15 15 16 20 22 27 26 32 29 24 23 23 22 21 19 19 21 16 16
Wind_Direction
183 182 190 194 201 208 207 210 216 211 221 216 228 222 215 227 201 193 190 183 179 177 172 171 170 167 164 163 164 152 145 137
187 186 185 194 207 216 214 209 216 219 217 214 220 217 208 205 168 234 187 181 190 181 179 175 174 167 164 166 166 153 155 138
193 191 187 193 210 222 214 217 212 217 213 214 212 202 202 176 183 214 175 185 181 185 193 180 176 169 167 170 170 180 146 162
190 191 187 192 205 217 211 213 211 213 210 209 196 188 188 188 188 205 207 190 175 184 208 193 173 163 167 170 187 204 185 155
202 195 190 192 204 215 213 212 207 206 207 197 195 183 184 182 190 198 193 187 182 182 203 197 174 171 170 174 197 163 190 138
205 199 193 194 201 208 214 213 202 202 204 197 192 178 176 178 180 185 183 184 185 191 193 187 180 175 172 178 177 181 166 123
198 199 196 185 197 207 209 223 203 198 200 197 194 182 175 172 180 183 187 190 195 190 192 181 178 171 172 170 166 186 161 141
197 193 192 178 183 201 201 204 204 208 198 199 200 188 184 187 186 186 188 193 199 201 196 172 171 173 171 172 174 165 172 173
195 190 189 184 186 195 204 201 199 206 202 198 202 196 189 191 192 193 199 201 199 198 193 170 169 172 171 169 166 169 174 174
188 189 189 188 187 189 195 200 206 209 204 205 207 202 194 188 186 190 191 199 200 189 184 181 170 174 159 168 168 171 170 171
186 187 187 187 182 188 188 197 208 203 194 202 205 197 194 189 189 190 192 190 195 185 180 181 171 149 163 169 169 169 172 175
184 186 185 185 174 178 178 184 202 207 199 203 209 203 203 199 191 192 193 191 189 185 181 183 173 154 174 166 168 163 174 180
184 184 184 179 179 179 181 192 198 202 209 215 208 215 215 210 191 200 198 190 184 182 182 181 184 163 156 136 159 161 173 182
184 186 185 182 185 183 176 194 205 211 204 204 216 224 220 220 199 184 185 185 185 184 185 189 184 159 157 155 138 150 191 193
186 186 186 183 182 175 175 187 199 201 200 193 206 214 217 215 184 187 184 188 185 186 186 191 181 172 174 174 161 186 184 198
188 185 185 185 179 174 181 181 193 206 197 195 206 222 219 203 218 196 190 187 186 190 190 193 182 183 195 192 192 208 175 167
188 184 185 185 185 179 190 197 202 198 184 177 191 202 222 226 227 179 183 185 187 187 194 199 197 189 191 204 207 240 209 184
187 183 184 186 185 184 193 190 194 181 175 173 185 189 206 215 198 181 181 180 185 189 192 200 201 194 195 213 211 214 234 235
184 182 183 184 183 183 189 190 189 183 182 173 168 186 188 183 183 176 180 177 187 193 197 207 202 200 198 199 218 226 222 248
182 179 183 183 180 181 187 192 190 186 180 176 183 189 194 191 194 193 190 182 181 185 195 199 201 202 205 208 217 221 236 241